星链-3794 (STARLINK-3794 )

导读 | 星芒AI

STARLINK-3794 是 SpaceX 星链计划中的一颗低轨通信卫星,属于星链第三代组网卫星。该卫星于2023年发射,旨在为全球用户提供高速互联网服务。它运行在约550公里高的近地轨道,具备先进通信技术和激光互联能力,有助于提升网络稳定性和减少延迟。星链项目通过部署大量此类卫星,构建覆盖全球的宽带网络系统,服务于偏远地区及商业用户。

基本信息
目录编号:
52631
目录名称:
STARLINK-3794
国际标识:
2022-052AK
轨道中心:
EARTH
卫星名称:
星链-3794
卫星全名:
星链-3794 (STARLINK-3794 )
卫星状态:
在轨 (已飞行1270 天)
发射日期:
2022-05-14 UTC
国别 :
美国 (US)
星等 :
--
轨道信息
数据来源 国际轨道数据
星历时间: 2025-11-04T12:25:21+0800
15小时前
查看轨道信息
半长轴: 6917.882km
偏心率: 0.0001321
轨道倾角: 53.219°
近地点辐角 88.177°
升交点赤经 112.546°
平近点角 271.937°
近地点: 538.833km
远地点: 540.661km
周期: 95.438分钟
每日圈数: 15.088396
详细信息
固有亮度:
5
最大亮度:
2.5
卫星平台:
Starlink v1.5
覆盖范围:
全球
运营商:
太空探索技术公司
运营商所在国:
美国
制造商(研发单位):
太空探索技术公司
制造商所在国:
美国
使用方式:
暂无
卫星简介
星链(Starlink)计划是由太空探索技术公司(SpaceX)提出的一个巨型低轨卫星互联网星座项目,计划在2019年至2024年间在太空搭建由约1.2万颗卫星组成的“星链”网络,其中1584颗将部署在地球上空550千米处的近地轨道,并从2020年开始工作。该卫星仍在工作。
2D轨道图
3D轨道图
轨道高度分析图
轨道倾角分析图
轨道综合分析图
查看轨道综合分析图